Regional Weather Roundup
Issued by NWS

Home | Current Version | Previous Version | Text Only | Print | Product List | Glossary On
Versions: 1 2 3 4 5 6 7 8 9 10 11 12 13 14 15 16 17 18 19 20 21 22 23 24 25 26 27 28 29 30 31 32 33 34 35 36 37 38 39 40 41 42 43 44 45 46 47 48 49 50
000
ASUS43 KFSD 081810
RWRSD

WEATHER ROUNDUP FOR SOUTH DAKOTA
NATIONAL WEATHER SERVICE SIOUX FALLS SD
100 PM CDT SAT MAY 08 2021

NOTE: "FAIR" INDICATES FEW OR NO CLOUDS BELOW 12,000 FEET WITH NO
SIGNIFICANT WEATHER AND/OR OBSTRUCTIONS TO VISIBILITY.


SDZ001>005-009-010-012>017-081900-
NORTHWEST AND NORTH CENTRAL SOUTH DAKOTA

CITY           SKY/WX    TMP DP  RH WIND       PRES   REMARKS
BUFFALO          N/A     38  34  85 E14       29.87S
MOBRIDGE       LGT RAIN  40  35  83 E26G36    29.91F
$$

SDZ012>016-024>037-041>051-057-063-072>074-081900-
SOUTHWEST AND SOUTH CENTRAL SOUTH DAKOTA

CITY           SKY/WX    TMP DP  RH WIND       PRES   REMARKS
RAPID CTY ARPT CLOUDY    45  31  58 NE9       29.82R
PIERRE         LGT RAIN  42  38  85 E18G29    29.89R FOG
CUSTER         CLOUDY    49  44  83 CALM      29.78F
ELLSWORTH AFB  CLOUDY    45  30  56 E7        29.82R
PHILIP         CLOUDY    44  35  70 E20G28    29.84R
PINE RIDGE     CLOUDY    50  39  66 NE13      29.78R
SPEARFISH      CLOUDY    46  34  61 NW16G22   29.85R
WINNER         CLOUDY    45  38  76 NE15      29.83F
$$

SDZ004>011-016>023-039-040-081900-
NORTHEAST SOUTH DAKOTA

CITY           SKY/WX    TMP DP  RH WIND       PRES   REMARKS
ABERDEEN       CLOUDY    46  37  71 NE13      30.02R
WATERTOWN      CLOUDY    49  25  39 E14G25    29.98F
BROOKINGS      CLOUDY    49  28  44 SE16      29.98F
SISSETON         N/A     52  24  33 SE16      30.01F
$$

SDZ017-020-022-023-036>040-048>070-081900-
SOUTHEAST SOUTH DAKOTA

CITY           SKY/WX    TMP DP  RH WIND       PRES   REMARKS
SIOUX FALLS    RAIN      45  37  73 E15       29.98R FOG
HURON          CLOUDY    46  34  62 SE22G31   29.94F
CHAMBERLAIN    CLOUDY    42  42 100 E15G22    29.88R
MITCHELL       LGT RAIN  44  39  82 E23G36    29.93F
YANKTON        LGT RAIN  46  40  79 E21G30    29.86S
$$

ABBREVIATIONS USED IN REMARKS
   TC - TEMPERATURE IN CELSIUS
  WCI - WIND CHILL INDEX
   HX - HEAT INDEX
  VSB - VISIBILITY




USA.gov is the U.S. government's official web portal to all federal, state and local government web resources and services.